contact:dominique.lefevre@mio.osupytheas.fr, maurice.libes@osupytheas.fr, didier.mallarino@osupytheas.fr
Project:EMSO http://www.emso-fr.org/EMSO-France
Depth: 2436.0 m
Title:EMSO Ligure Ouest : Data MII capteur AQUADOPP
Date,Latitude,Longitude,X_East,Y_North,Z_Up,Amplitude_X,Amplitude_Y,Amplitude_Z,Batterie,SoundSpeed,Heading,Pitch,Roll,Pressure,TIS,Speed,Direction
, degrees North, degrees East, m.s-1, m.s-1,m.s-1, 1, 1, 1, Volt, m.s-1, degree, degree, degree, dbar, degree_C, m.s-1, degree
2021-09-11T00:04:03,42.805,6.029,-0.019,-0.009,-0.006,104.0,102.0,101.0,13.3,1505.2,330.4,-0.7,1.8,2470.673,13.28,0.021,244.7
2021-09-11T00:07:03,42.805,6.029,-0.031,-0.01,-0.03,102.0,103.0,101.0,13.3,1505.2,328.0,-0.8,1.8,2470.688,13.28,0.032,252.1
2021-09-11T00:10:03,42.805,6.029,-0.024,0.015,0.012,104.0,102.0,102.0,13.3,1505.2,327.7,-0.8,1.8,2470.676,13.28,0.028,302.0
2021-09-11T00:13:03,42.805,6.029,-0.009,-0.032,-0.033,103.0,102.0,102.0,13.4,1505.2,329.8,-0.8,1.8,2470.7,13.28,0.033,195.7
2021-09-11T00:16:03,42.805,6.029,-0.025,-0.007,0.004,103.0,103.0,102.0,13.4,1505.2,325.5,-0.8,1.8,2470.715,13.28,0.025,254.4
2021-09-11T00:19:03,42.805,6.029,-0.037,0.005,-0.037,103.0,104.0,102.0,13.3,1505.2,329.8,-0.7,1.8,2470.643,13.28,0.037,277.7
2021-09-11T00:22:03,42.805,6.029,0.003,-0.021,-0.021,104.0,102.0,101.0,13.4,1505.2,331.0,-0.8,1.8,2470.7,13.28,0.021,171.9
2021-09-11T00:25:03,42.805,6.029,-0.032,-0.013,-0.047,103.0,102.0,102.0,13.4,1505.2,325.8,-0.8,1.8,2470.63,13.28,0.034,247.9
2021-09-11T00:28:03,42.805,6.029,-0.029,-0.021,-0.023,103.0,103.0,101.0,13.4,1505.2,328.9,-0.8,1.8,2470.651,13.28,0.035,234.1
2021-09-11T00:31:03,42.805,6.029,-0.006,-0.008,-0.016,102.0,103.0,102.0,13.4,1505.2,325.3,-0.8,1.8,2470.653,13.28,0.01,216.9
2021-09-11T00:34:03,42.805,6.029,-0.015,-0.025,-0.027,103.0,103.0,102.0,13.4,1505.2,328.9,-0.8,1.8,2470.642,13.28,0.029,211.0
2021-09-11T00:37:03,42.805,6.029,-0.03,-0.002,-0.007,103.0,102.0,101.0,13.4,1505.2,330.9,-0.8,1.8,2470.617,13.28,0.03,266.2
2021-09-11T00:40:03,42.805,6.029,-0.041,-0.036,-0.013,103.0,101.0,103.0,13.4,1505.2,329.6,-0.8,1.9,2470.618,13.28,0.054,228.7
2021-09-11T00:43:03,42.805,6.029,0.0,0.0,-0.009,103.0,102.0,102.0,13.4,1505.2,329.2,-0.7,1.8,2470.652,13.28,0.0,0.0
2021-09-11T00:46:03,42.805,6.029,-0.032,-0.013,-0.021,103.0,103.0,101.0,13.4,1505.2,328.8,-0.8,1.8,2470.565,13.28,0.034,247.9
2021-09-11T00:49:03,42.805,6.029,-0.022,-0.007,-0.019,103.0,103.0,101.0,13.4,1505.2,331.3,-0.7,1.8,2470.609,13.28,0.023,252.4
2021-09-11T00:52:03,42.805,6.029,-0.021,-0.023,-0.004,102.0,103.0,102.0,13.4,1505.2,331.2,-0.8,1.8,2470.641,13.28,0.031,222.4
2021-09-11T00:55:03,42.805,6.029,-0.012,-0.018,-0.013,103.0,102.0,101.0,13.3,1505.2,330.5,-0.8,1.8,2470.631,13.28,0.021,213.7
2021-09-11T00:58:03,42.805,6.029,-0.002,-0.006,-0.008,103.0,103.0,102.0,13.4,1505.2,328.4,-0.8,1.8,2470.612,13.28,0.006,198.4
2021-09-11T01:04:03,42.805,6.029,-0.022,-0.054,-0.067,105.0,103.0,103.0,13.3,1505.2,326.9,-0.7,1.8,2470.643,13.28,0.058,202.2
2021-09-11T01:07:03,42.805,6.029,-0.006,-0.026,0.014,105.0,103.0,103.0,13.4,1505.2,328.2,-0.8,1.9,2470.646,13.28,0.026,193.0
2021-09-11T01:10:03,42.805,6.029,0.002,-0.023,-0.014,104.0,103.0,102.0,13.4,1505.2,327.7,-0.7,1.8,2470.645,13.28,0.023,175.0
2021-09-11T01:13:03,42.805,6.029,-0.015,-0.03,-0.091,105.0,104.0,103.0,13.3,1505.2,329.0,-0.8,1.8,2470.616,13.28,0.033,206.6
2021-09-11T01:16:03,42.805,6.029,-0.02,-0.02,-0.029,102.0,102.0,102.0,13.3,1505.2,326.7,-0.7,1.8,2470.632,13.28,0.028,225.0
2021-09-11T01:19:03,42.805,6.029,-0.032,-0.011,0.008,103.0,102.0,103.0,13.4,1505.2,326.6,-0.8,1.8,2470.608,13.28,0.033,251.0
2021-09-11T01:22:03,42.805,6.029,-0.032,-0.033,-0.043,102.0,104.0,100.0,13.4,1505.2,328.8,-0.8,1.8,2470.637,13.28,0.045,224.1
2021-09-11T01:25:03,42.805,6.029,-0.028,-0.007,-0.012,103.0,102.0,101.0,13.4,1505.2,330.5,-0.8,1.8,2470.583,13.28,0.028,256.0
2021-09-11T01:28:03,42.805,6.029,-0.026,-0.018,-0.043,102.0,102.0,102.0,13.4,1505.2,329.1,-0.8,1.8,2470.572,13.28,0.031,235.3
2021-09-11T01:31:03,42.805,6.029,-0.013,-0.006,-0.04,104.0,104.0,99.0,13.3,1505.2,329.7,-0.8,1.8,2470.604,13.28,0.014,245.2
2021-09-11T01:34:03,42.805,6.029,-0.02,-0.026,-0.012,103.0,103.0,102.0,13.4,1505.2,329.8,-0.7,1.8,2470.587,13.28,0.032,217.6
2021-09-11T01:37:03,42.805,6.029,-0.036,-0.015,-0.039,102.0,103.0,102.0,13.4,1505.2,328.2,-0.8,1.9,2470.616,13.28,0.039,247.4
2021-09-11T01:40:03,42.805,6.029,-0.028,-0.028,-0.01,104.0,104.0,100.0,13.4,1505.2,326.7,-0.7,1.8,2470.634,13.28,0.039,225.0
2021-09-11T01:43:03,42.805,6.029,-0.018,-0.026,-0.002,103.0,103.0,102.0,13.4,1505.2,327.2,-0.7,1.8,2470.601,13.28,0.031,214.7
2021-09-11T01:46:03,42.805,6.029,-0.01,-0.009,-0.011,103.0,103.0,101.0,13.4,1505.2,325.5,-0.8,1.8,2470.598,13.28,0.013,228.0
2021-09-11T01:49:03,42.805,6.029,-0.032,-0.004,0.002,102.0,103.0,101.0,13.3,1505.2,330.6,-0.7,1.8,2470.596,13.28,0.032,262.9
2021-09-11T01:52:03,42.805,6.029,-0.042,-0.008,-0.045,105.0,103.0,101.0,13.4,1505.2,329.1,-0.7,1.8,2470.576,13.28,0.042,259.2
2021-09-11T01:55:03,42.805,6.029,-0.035,-0.017,-0.031,104.0,103.0,101.0,13.4,1505.2,326.4,-0.7,1.8,2470.604,13.28,0.038,244.1
2021-09-11T01:58:03,42.805,6.029,-0.04,-0.012,0.001,103.0,103.0,102.0,13.3,1505.2,326.7,-0.7,1.8,2470.586,13.28,0.041,253.3
2021-09-11T02:04:03,42.805,6.029,-0.022,0.003,-0.009,103.0,103.0,101.0,13.4,1505.2,330.3,-0.7,1.8,2470.613,13.28,0.022,277.8
2021-09-11T02:07:03,42.805,6.029,-0.028,-0.011,-0.041,103.0,103.0,102.0,13.4,1505.2,330.4,-0.8,1.8,2470.617,13.28,0.03,248.6
2021-09-11T02:10:03,42.805,6.029,-0.008,0.0,-0.017,102.0,103.0,101.0,13.4,1505.2,327.1,-0.7,1.8,2470.553,13.28,0.008,270.0
2021-09-11T02:13:03,42.805,6.029,-0.043,-0.012,-0.041,102.0,103.0,102.0,13.4,1505.2,329.2,-0.8,1.8,2470.575,13.28,0.044,254.4
2021-09-11T02:16:03,42.805,6.029,-0.025,-0.001,0.018,102.0,104.0,103.0,13.4,1505.2,327.6,-0.8,1.8,2470.609,13.28,0.025,267.7
2021-09-11T02:19:03,42.805,6.029,-0.032,-0.033,-0.017,103.0,102.0,101.0,13.4,1505.2,327.4,-0.8,1.8,2470.58,13.28,0.045,224.1
2021-09-11T02:22:03,42.805,6.029,-0.038,-0.034,-0.035,103.0,102.0,102.0,13.4,1505.2,330.1,-0.8,1.8,2470.595,13.28,0.05,228.2
2021-09-11T02:25:03,42.805,6.029,-0.042,0.0,-0.014,103.0,104.0,102.0,13.4,1505.2,331.0,-0.7,1.8,2470.584,13.28,0.042,270.0
2021-09-11T02:28:03,42.805,6.029,-0.02,-0.022,-0.05,104.0,103.0,101.0,13.4,1505.2,328.9,-0.7,1.8,2470.564,13.28,0.029,222.3
2021-09-11T02:31:03,42.805,6.029,-0.017,0.007,0.0,104.0,101.0,102.0,13.4,1505.2,326.8,-0.8,1.8,2470.565,13.28,0.018,292.4
2021-09-11T02:34:03,42.805,6.029,-0.034,-0.005,-0.014,104.0,102.0,102.0,13.4,1505.2,326.6,-0.8,1.8,2470.588,13.28,0.034,261.6
2021-09-11T02:37:03,42.805,6.029,-0.021,-0.003,0.012,104.0,101.0,102.0,13.3,1505.2,330.2,-0.8,1.8,2470.561,13.28,0.021,261.9
2021-09-11T02:40:03,42.805,6.029,-0.029,-0.013,-0.028,103.0,103.0,102.0,13.3,1505.2,325.6,-0.7,1.8,2470.558,13.28,0.031,245.9
2021-09-11T02:43:03,42.805,6.029,-0.029,-0.011,-0.018,104.0,104.0,103.0,13.4,1505.2,327.5,-0.7,1.9,2470.572,13.28,0.031,249.2
2021-09-11T02:46:03,42.805,6.029,-0.027,-0.018,0.001,102.0,105.0,101.0,13.4,1505.2,330.9,-0.8,1.8,2470.579,13.28,0.032,236.3
2021-09-11T02:49:03,42.805,6.029,-0.046,-0.003,-0.036,103.0,102.0,101.0,13.4,1505.2,329.3,-0.8,1.8,2470.552,13.28,0.046,266.3
2021-09-11T02:52:03,42.805,6.029,-0.039,-0.026,-0.041,103.0,102.0,101.0,13.3,1505.2,329.9,-0.7,1.8,2470.515,13.28,0.046,236.3
2021-09-11T02:55:03,42.805,6.029,-0.022,-0.023,-0.044,103.0,103.0,102.0,13.3,1505.2,328.4,-0.8,1.8,2470.528,13.28,0.031,223.7
2021-09-11T02:58:03,42.805,6.029,-0.025,-0.024,-0.035,103.0,103.0,100.0,13.4,1505.2,326.4,-0.8,1.8,2470.549,13.28,0.034,226.2
2021-09-11T03:04:03,42.805,6.029,-0.032,-0.021,-0.051,102.0,102.0,101.0,13.4,1505.2,331.2,-0.7,1.8,2470.569,13.28,0.038,236.7
2021-09-11T03:07:03,42.805,6.029,-0.031,-0.024,0.0,105.0,102.0,103.0,13.3,1505.2,330.6,-0.7,1.8,2470.537,13.28,0.039,232.3
2021-09-11T03:10:03,42.805,6.029,-0.043,-0.015,-0.028,103.0,103.0,101.0,13.4,1505.2,326.4,-0.7,1.8,2470.538,13.28,0.045,250.8
2021-09-11T03:13:03,42.805,6.029,-0.019,0.001,-0.011,104.0,103.0,102.0,13.3,1505.2,327.8,-0.7,1.8,2470.527,13.28,0.019,273.0
2021-09-11T03:16:03,42.805,6.029,-0.015,0.0,0.01,104.0,103.0,102.0,13.4,1505.2,329.3,-0.7,1.8,2470.552,13.28,0.015,270.0
2021-09-11T03:19:03,42.805,6.029,-0.022,0.007,0.0,104.0,103.0,101.0,13.4,1505.2,330.8,-0.7,1.8,2470.539,13.28,0.023,287.6
2021-09-11T03:22:03,42.805,6.029,-0.009,0.009,-0.004,102.0,102.0,102.0,13.4,1505.2,330.8,-0.8,1.8,2470.527,13.28,0.012,315.0
2021-09-11T03:25:03,42.805,6.029,-0.028,-0.001,-0.032,104.0,103.0,100.0,13.4,1505.2,327.4,-0.8,1.8,2470.519,13.28,0.028,268.0
2021-09-11T03:28:03,42.805,6.029,-0.013,0.012,-0.015,102.0,102.0,101.0,13.3,1505.2,328.6,-0.7,1.8,2470.53,13.28,0.017,312.7
2021-09-11T03:31:03,42.805,6.029,-0.015,-0.016,-0.001,103.0,102.0,101.0,13.3,1505.2,325.4,-0.8,1.8,2470.489,13.28,0.021,223.1
2021-09-11T03:34:03,42.805,6.029,-0.021,-0.01,0.009,103.0,102.0,101.0,13.3,1505.2,326.6,-0.8,1.8,2470.515,13.28,0.023,244.5
2021-09-11T03:37:03,42.805,6.029,-0.038,0.005,-0.014,103.0,104.0,100.0,13.4,1505.2,325.7,-0.7,1.8,2470.569,13.28,0.038,277.5
2021-09-11T03:40:03,42.805,6.029,-0.005,-0.023,0.009,103.0,102.0,102.0,13.4,1505.2,326.1,-0.8,1.8,2470.525,13.28,0.023,192.3
2021-09-11T03:43:03,42.805,6.029,-0.038,-0.021,-0.036,101.0,103.0,100.0,13.4,1505.2,329.0,-0.8,1.8,2470.537,13.28,0.043,241.1
2021-09-11T03:46:03,42.805,6.029,-0.022,-0.001,-0.035,101.0,101.0,100.0,13.3,1505.2,328.8,-0.8,1.8,2470.543,13.28,0.022,267.4
2021-09-11T03:49:03,42.805,6.029,-0.037,-0.013,-0.064,102.0,102.0,101.0,13.4,1505.2,326.7,-0.8,1.8,2470.528,13.28,0.039,250.6
2021-09-11T03:52:03,42.805,6.029,-0.036,-0.016,-0.024,104.0,102.0,101.0,13.4,1505.2,329.4,-0.8,1.8,2470.51,13.28,0.039,246.0
2021-09-11T03:55:03,42.805,6.029,-0.008,-0.022,0.007,104.0,102.0,100.0,13.4,1505.2,327.4,-0.7,1.8,2470.524,13.28,0.023,200.0
2021-09-11T03:58:03,42.805,6.029,-0.034,-0.034,-0.025,102.0,103.0,102.0,13.4,1505.2,329.7,-0.7,1.8,2470.524,13.28,0.048,225.0
2021-09-11T04:04:03,42.805,6.029,-0.009,0.013,-0.021,103.0,103.0,101.0,13.4,1505.2,325.0,-0.7,1.8,2470.569,13.28,0.015,325.3
2021-09-11T04:07:03,42.805,6.029,-0.04,0.0,-0.005,103.0,104.0,102.0,13.3,1505.2,326.1,-0.7,1.8,2470.529,13.28,0.04,270.0
2021-09-11T04:10:03,42.805,6.029,-0.034,-0.017,-0.028,104.0,103.0,102.0,13.4,1505.2,326.3,-0.8,1.8,2470.55,13.28,0.038,243.4
2021-09-11T04:13:03,42.805,6.029,-0.031,0.012,-0.01,104.0,103.0,102.0,13.3,1505.2,325.8,-0.7,1.8,2470.519,13.28,0.033,291.2
2021-09-11T04:16:03,42.805,6.029,-0.034,-0.012,-0.012,101.0,103.0,102.0,13.3,1505.2,327.9,-0.7,1.8,2470.512,13.28,0.036,250.6
2021-09-11T04:19:03,42.805,6.029,-0.018,-0.009,-0.001,103.0,103.0,101.0,13.4,1505.2,330.2,-0.7,1.8,2470.532,13.28,0.02,243.4
2021-09-11T04:22:03,42.805,6.029,-0.027,-0.009,-0.003,103.0,102.0,101.0,13.3,1505.2,327.9,-0.7,1.8,2470.545,13.28,0.028,251.6
2021-09-11T04:25:03,42.805,6.029,-0.007,-0.027,-0.027,103.0,103.0,101.0,13.3,1505.2,329.7,-0.8,1.8,2470.522,13.28,0.027,194.5
2021-09-11T04:28:03,42.805,6.029,-0.021,0.017,-0.022,103.0,102.0,102.0,13.3,1505.2,330.4,-0.8,1.8,2470.496,13.28,0.027,309.0
2021-09-11T04:31:03,42.805,6.029,-0.025,-0.009,-0.02,102.0,103.0,102.0,13.4,1505.2,328.2,-0.7,1.8,2470.515,13.28,0.026,250.2
2021-09-11T04:34:03,42.805,6.029,-0.027,-0.011,-0.005,104.0,101.0,102.0,13.4,1505.2,326.6,-0.8,1.8,2470.498,13.28,0.029,247.8
2021-09-11T04:37:03,42.805,6.029,-0.021,0.0,0.01,104.0,103.0,101.0,13.3,1505.2,327.7,-0.8,1.8,2470.496,13.28,0.021,270.0
2021-09-11T04:40:03,42.805,6.029,-0.047,-0.019,-0.039,103.0,103.0,101.0,13.4,1505.2,327.8,-0.7,1.8,2470.503,13.28,0.05,248.0
2021-09-11T04:43:03,42.805,6.029,-0.033,0.013,-0.017,104.0,102.0,101.0,13.4,1505.2,329.9,-0.8,1.8,2470.497,13.28,0.035,291.5
2021-09-11T04:46:03,42.805,6.029,-0.029,-0.015,-0.029,103.0,101.0,101.0,13.3,1505.2,331.4,-0.8,1.8,2470.497,13.28,0.032,242.6
2021-09-11T04:49:03,42.805,6.029,-0.002,-0.024,-0.017,104.0,103.0,102.0,13.4,1505.2,327.4,-0.7,1.8,2470.496,13.28,0.024,184.8
2021-09-11T04:52:03,42.805,6.029,-0.029,-0.015,-0.004,104.0,103.0,101.0,13.3,1505.2,329.7,-0.7,1.8,2470.492,13.28,0.032,242.6
2021-09-11T04:55:03,42.805,6.029,-0.022,-0.001,-0.015,102.0,104.0,101.0,13.4,1505.2,329.7,-0.7,1.8,2470.534,13.28,0.022,267.4
2021-09-11T04:58:03,42.805,6.029,-0.024,-0.002,-0.046,104.0,102.0,101.0,13.4,1505.2,327.2,-0.7,1.8,2470.49,13.28,0.024,265.2
2021-09-11T05:04:03,42.805,6.029,-0.026,0.007,-0.046,104.0,103.0,102.0,13.4,1505.2,327.7,-0.8,1.8,2470.501,13.28,0.026,285.1
2021-09-11T05:07:03,42.805,6.029,-0.013,0.0,0.008,104.0,103.0,100.0,13.3,1505.2,328.5,-0.8,1.8,2470.528,13.28,0.013,270.0
2021-09-11T05:10:03,42.805,6.029,-0.034,-0.019,-0.008,103.0,102.0,103.0,13.3,1505.2,329.9,-0.8,1.8,2470.484,13.28,0.038,240.8
2021-09-11T05:13:03,42.805,6.029,-0.033,0.004,0.011,104.0,101.0,102.0,13.4,1505.2,328.1,-0.7,1.8,2470.504,13.28,0.033,276.9
2021-09-11T05:16:03,42.805,6.029,-0.001,-0.027,-0.033,101.0,105.0,101.0,13.4,1505.2,325.7,-0.7,1.8,2470.514,13.28,0.027,182.1
2021-09-11T05:19:03,42.805,6.029,-0.024,-0.009,-0.035,103.0,103.0,101.0,13.4,1505.2,329.8,-0.7,1.8,2470.512,13.28,0.025,249.4
2021-09-11T05:22:03,42.805,6.029,-0.051,-0.005,-0.055,102.0,101.0,101.0,13.4,1505.2,327.3,-0.8,1.8,2470.503,13.28,0.051,264.4
2021-09-11T05:25:03,42.805,6.029,-0.038,0.013,-0.029,102.0,102.0,100.0,13.4,1505.2,327.8,-0.7,1.8,2470.531,13.28,0.04,288.9
2021-09-11T05:28:03,42.805,6.029,-0.023,0.004,-0.017,102.0,102.0,101.0,13.4,1505.2,331.1,-0.7,1.8,2470.543,13.28,0.023,279.9
2021-09-11T05:31:03,42.805,6.029,-0.021,-0.011,-0.004,102.0,103.0,101.0,13.3,1505.2,327.4,-0.7,1.8,2470.508,13.28,0.023,242.4
2021-09-11T05:34:03,42.805,6.029,-0.037,0.008,-0.044,103.0,103.0,102.0,13.4,1505.2,329.6,-0.8,1.8,2470.53,13.28,0.037,282.2
2021-09-11T05:37:03,42.805,6.029,-0.033,-0.01,-0.017,103.0,102.0,101.0,13.4,1505.2,327.8,-0.8,1.8,2470.501,13.28,0.034,253.1
2021-09-11T05:40:03,42.805,6.029,-0.034,0.004,-0.015,103.0,102.0,102.0,13.3,1505.2,328.1,-0.8,1.8,2470.524,13.28,0.034,276.7
2021-09-11T05:43:03,42.805,6.029,-0.021,0.003,-0.054,103.0,103.0,100.0,13.4,1505.2,326.9,-0.7,1.8,2470.525,13.28,0.021,278.1
2021-09-11T05:46:03,42.805,6.029,-0.022,0.002,-0.031,103.0,106.0,101.0,13.4,1505.2,330.6,-0.8,1.8,2470.536,13.28,0.022,275.2
2021-09-11T05:49:03,42.805,6.029,-0.032,-0.002,-0.016,104.0,103.0,101.0,13.4,1505.2,329.1,-0.8,1.9,2470.498,13.28,0.032,266.4
2021-09-11T05:52:03,42.805,6.029,-0.028,-0.029,-0.04,103.0,103.0,101.0,13.3,1505.2,328.9,-0.8,1.8,2470.514,13.28,0.04,224.0
2021-09-11T05:55:03,42.805,6.029,-0.027,-0.01,-0.035,103.0,103.0,102.0,13.3,1505.2,325.2,-0.8,1.8,2470.501,13.28,0.028,249.7
2021-09-11T05:58:03,42.805,6.029,-0.037,-0.006,-0.024,105.0,103.0,101.0,13.4,1505.2,328.9,-0.7,1.8,2470.541,13.28,0.037,260.8
2021-09-11T06:04:03,42.805,6.029,-0.042,-0.024,-0.053,104.0,103.0,102.0,13.4,1505.2,329.1,-0.8,1.8,2470.579,13.28,0.048,240.3
2021-09-11T06:07:03,42.805,6.029,-0.029,-0.005,-0.03,103.0,103.0,102.0,13.4,1505.2,330.9,-0.8,1.8,2470.586,13.28,0.029,260.2
2021-09-11T06:10:03,42.805,6.029,-0.036,0.002,0.003,102.0,103.0,102.0,13.4,1505.2,328.1,-0.8,1.8,2470.559,13.28,0.036,273.2
2021-09-11T06:13:03,42.805,6.029,-0.045,-0.016,-0.012,102.0,102.0,102.0,13.4,1505.2,329.0,-0.8,1.9,2470.544,13.28,0.047,250.4
2021-09-11T06:16:03,42.805,6.029,-0.038,-0.008,-0.008,103.0,102.0,101.0,13.4,1505.2,325.8,-0.8,1.8,2470.573,13.28,0.038,258.1
2021-09-11T06:19:03,42.805,6.029,-0.03,-0.011,-0.05,103.0,103.0,101.0,13.3,1505.2,328.2,-0.7,1.8,2470.544,13.28,0.031,249.9
2021-09-11T06:22:03,42.805,6.029,-0.033,-0.003,-0.027,104.0,102.0,101.0,13.4,1505.2,326.9,-0.8,1.8,2470.547,13.28,0.033,264.8
2021-09-11T06:25:03,42.805,6.029,-0.047,-0.016,-0.041,102.0,103.0,103.0,13.4,1505.2,328.5,-0.8,1.8,2470.585,13.28,0.049,251.2
2021-09-11T06:28:03,42.805,6.029,-0.033,-0.003,-0.012,105.0,103.0,101.0,13.4,1505.2,330.1,-0.8,1.8,2470.56,13.28,0.033,264.8
2021-09-11T06:31:03,42.805,6.029,-0.038,0.011,0.002,103.0,102.0,101.0,13.3,1505.2,327.8,-0.7,1.8,2470.622,13.28,0.039,286.1
2021-09-11T06:34:03,42.805,6.029,-0.019,-0.016,-0.019,102.0,104.0,101.0,13.4,1505.2,325.2,-0.7,1.8,2470.555,13.28,0.024,229.9
2021-09-11T06:37:03,42.805,6.029,-0.031,-0.011,-0.052,103.0,104.0,102.0,13.4,1505.2,325.3,-0.8,1.8,2470.608,13.28,0.032,250.5
2021-09-11T06:40:03,42.805,6.029,-0.032,0.014,0.021,102.0,103.0,100.0,13.4,1505.2,326.1,-0.8,1.8,2470.581,13.28,0.034,293.6
2021-09-11T06:43:03,42.805,6.029,-0.032,-0.005,-0.026,104.0,102.0,101.0,13.3,1505.2,327.9,-0.8,1.8,2470.56,13.28,0.032,261.1
2021-09-11T06:46:03,42.805,6.029,-0.014,-0.021,-0.017,103.0,103.0,102.0,13.4,1505.2,327.8,-0.8,1.8,2470.573,13.28,0.025,213.7
2021-09-11T06:49:03,42.805,6.029,-0.042,0.001,0.011,103.0,103.0,101.0,13.3,1505.2,328.7,-0.7,1.8,2470.579,13.28,0.042,271.4
2021-09-11T06:52:03,42.805,6.029,-0.036,-0.001,-0.03,102.0,103.0,103.0,13.4,1505.2,329.3,-0.7,1.8,2470.584,13.28,0.036,268.4
2021-09-11T06:55:03,42.805,6.029,-0.041,-0.009,-0.016,104.0,103.0,102.0,13.4,1505.2,329.1,-0.8,1.8,2470.544,13.28,0.041,257.6
2021-09-11T06:58:03,42.805,6.029,-0.039,-0.002,-0.013,102.0,103.0,102.0,13.4,1505.2,325.3,-0.8,1.8,2470.571,13.28,0.039,267.1
2021-09-11T07:04:03,42.805,6.029,-0.035,0.011,-0.021,103.0,104.0,101.0,13.4,1505.2,327.9,-0.8,1.8,2470.588,13.28,0.036,287.4
2021-09-11T07:07:03,42.805,6.029,-0.015,0.012,0.004,102.0,103.0,101.0,13.4,1505.2,327.0,-0.7,1.8,2470.61,13.28,0.019,308.7
2021-09-11T07:10:03,42.805,6.029,-0.037,0.0,-0.008,103.0,102.0,102.0,13.3,1505.2,328.9,-0.7,1.8,2470.599,13.28,0.037,270.0
2021-09-11T07:13:03,42.805,6.029,-0.044,-0.016,-0.025,103.0,102.0,102.0,13.4,1505.2,328.8,-0.8,1.8,2470.618,13.28,0.046,250.0
2021-09-11T07:16:03,42.805,6.029,-0.013,0.0,-0.005,103.0,101.0,101.0,13.4,1505.2,329.4,-0.8,1.8,2470.616,13.28,0.013,270.0
2021-09-11T07:19:03,42.805,6.029,-0.042,0.01,-0.023,102.0,103.0,102.0,13.4,1505.2,325.6,-0.7,1.8,2470.635,13.28,0.043,283.4
2021-09-11T07:22:03,42.805,6.029,-0.038,0.002,-0.001,103.0,102.0,101.0,13.4,1505.2,329.1,-0.7,1.8,2470.603,13.28,0.038,273.0
2021-09-11T07:25:03,42.805,6.029,-0.028,-0.004,-0.026,103.0,102.0,102.0,13.4,1505.2,329.7,-0.8,1.8,2470.624,13.28,0.028,261.9
2021-09-11T07:28:03,42.805,6.029,-0.045,0.005,-0.021,102.0,103.0,102.0,13.4,1505.2,329.6,-0.7,1.8,2470.631,13.28,0.045,276.3
2021-09-11T07:31:03,42.805,6.029,-0.048,0.013,-0.024,105.0,103.0,100.0,13.4,1505.2,329.1,-0.8,1.8,2470.622,13.28,0.049,285.2
2021-09-11T07:34:03,42.805,6.029,-0.015,-0.004,-0.015,104.0,104.0,99.0,13.4,1505.2,329.5,-0.7,1.8,2470.651,13.28,0.015,255.1
2021-09-11T07:37:03,42.805,6.029,-0.046,-0.003,-0.018,103.0,103.0,102.0,13.4,1505.2,328.8,-0.7,1.8,2470.602,13.28,0.046,266.3
2021-09-11T07:40:03,42.805,6.029,-0.041,-0.006,-0.054,103.0,102.0,102.0,13.4,1505.2,329.3,-0.7,1.8,2470.597,13.28,0.041,261.7
2021-09-11T07:43:03,42.805,6.029,-0.029,0.015,-0.009,102.0,103.0,101.0,13.4,1505.2,328.2,-0.8,1.8,2470.631,13.28,0.032,297.4
2021-09-11T07:46:03,42.805,6.029,-0.047,0.006,-0.013,103.0,103.0,101.0,13.4,1505.2,330.2,-0.7,1.8,2470.642,13.28,0.047,277.3
2021-09-11T07:49:03,42.805,6.029,-0.022,0.003,0.011,103.0,103.0,102.0,13.4,1505.2,327.1,-0.8,1.8,2470.624,13.28,0.022,277.8
2021-09-11T07:52:03,42.805,6.029,-0.02,0.018,-0.025,102.0,103.0,101.0,13.4,1505.2,329.1,-0.8,1.8,2470.637,13.28,0.026,312.0
2021-09-11T07:55:03,42.805,6.029,-0.024,-0.003,-0.026,102.0,103.0,101.0,13.4,1505.2,326.1,-0.7,1.8,2470.62,13.28,0.024,262.9
2021-09-11T07:58:03,42.805,6.029,-0.023,0.019,-0.014,103.0,102.0,101.0,13.4,1505.2,327.9,-0.8,1.8,2470.63,13.28,0.029,309.6
2021-09-11T08:04:03,42.805,6.029,-0.031,0.027,0.004,102.0,104.0,100.0,13.3,1505.2,327.2,-0.8,1.8,2470.695,13.28,0.041,311.1
2021-09-11T08:07:03,42.805,6.029,-0.053,0.003,-0.02,102.0,101.0,101.0,13.4,1505.2,330.4,-0.8,1.9,2470.686,13.28,0.053,273.2
2021-09-11T08:10:03,42.805,6.029,-0.02,-0.006,-0.048,102.0,102.0,101.0,13.4,1505.2,327.8,-0.7,1.8,2470.676,13.28,0.02,253.3
2021-09-11T08:13:03,42.805,6.029,-0.041,0.024,0.012,103.0,101.0,101.0,13.3,1505.2,330.6,-0.8,1.8,2470.669,13.28,0.047,300.3
2021-09-11T08:16:03,42.805,6.029,-0.034,0.0,-0.022,103.0,101.0,101.0,13.4,1505.2,329.5,-0.7,1.8,2470.657,13.28,0.034,270.0
2021-09-11T08:19:03,42.805,6.029,-0.027,0.011,-0.004,103.0,102.0,102.0,13.4,1505.2,330.8,-0.8,1.8,2470.678,13.28,0.029,292.2
2021-09-11T08:22:03,42.805,6.029,-0.045,0.011,-0.003,103.0,101.0,101.0,13.3,1505.2,325.5,-0.8,1.8,2470.658,13.28,0.046,283.7
2021-09-11T08:25:03,42.805,6.029,-0.022,-0.011,-0.029,102.0,101.0,103.0,13.3,1505.2,329.9,-0.7,1.8,2470.632,13.28,0.024,243.4
2021-09-11T08:28:03,42.805,6.029,-0.04,0.007,-0.022,102.0,102.0,100.0,13.4,1505.2,331.2,-0.8,1.8,2470.7,13.28,0.04,279.9
2021-09-11T08:31:03,42.805,6.029,-0.047,-0.004,-0.021,101.0,102.0,101.0,13.4,1505.2,331.3,-0.7,1.8,2470.715,13.28,0.047,265.1
2021-09-11T08:34:03,42.805,6.029,-0.04,0.009,-0.013,103.0,101.0,101.0,13.4,1505.2,327.7,-0.8,1.9,2470.693,13.28,0.041,282.7
2021-09-11T08:37:03,42.805,6.029,-0.033,0.016,0.006,103.0,101.0,100.0,13.4,1505.2,326.6,-0.7,1.8,2470.661,13.28,0.036,295.9
2021-09-11T08:40:03,42.805,6.029,-0.015,-0.001,-0.019,102.0,102.0,101.0,13.4,1505.2,328.2,-0.8,1.8,2470.686,13.28,0.015,266.2
2021-09-11T08:43:03,42.805,6.029,-0.012,0.001,-0.014,103.0,102.0,101.0,13.4,1505.2,329.1,-0.8,1.8,2470.7,13.28,0.012,274.8
2021-09-11T08:46:03,42.805,6.029,0.002,-0.023,-0.027,103.0,102.0,100.0,13.4,1505.2,328.6,-0.8,1.8,2470.673,13.28,0.023,175.0
2021-09-11T08:49:03,42.805,6.029,-0.033,0.005,0.004,103.0,103.0,100.0,13.4,1505.2,326.0,-0.7,1.8,2470.671,13.28,0.033,278.6
2021-09-11T08:52:03,42.805,6.029,-0.037,-0.001,-0.009,102.0,102.0,101.0,13.4,1505.2,327.3,-0.7,1.8,2470.687,13.28,0.037,268.5
2021-09-11T08:55:03,42.805,6.029,-0.028,-0.008,-0.029,102.0,103.0,101.0,13.4,1505.2,328.5,-0.7,1.8,2470.738,13.28,0.029,254.1
2021-09-11T08:58:03,42.805,6.029,-0.027,-0.005,0.005,102.0,103.0,101.0,13.4,1505.2,328.3,-0.7,1.8,2470.667,13.29,0.027,259.5
2021-09-11T09:04:03,42.805,6.029,-0.032,-0.001,-0.035,104.0,101.0,101.0,13.3,1505.2,327.1,-0.8,1.8,2470.721,13.28,0.032,268.2
2021-09-11T09:07:03,42.805,6.029,-0.036,0.014,-0.046,102.0,102.0,101.0,13.3,1505.2,326.6,-0.8,1.8,2470.713,13.28,0.038,291.2
2021-09-11T09:10:03,42.805,6.029,-0.046,0.011,-0.005,102.0,103.0,99.0,13.4,1505.2,325.7,-0.8,1.8,2470.772,13.28,0.047,283.4
2021-09-11T09:13:03,42.805,6.029,-0.026,0.0,-0.02,101.0,102.0,102.0,13.3,1505.2,324.9,-0.8,1.8,2470.74,13.28,0.026,270.0
2021-09-11T09:16:03,42.805,6.029,-0.025,-0.013,-0.025,102.0,101.0,101.0,13.4,1505.2,326.3,-0.7,1.8,2470.815,13.28,0.028,242.5
2021-09-11T09:19:03,42.805,6.029,-0.051,-0.009,0.006,101.0,102.0,102.0,13.3,1505.2,326.8,-0.7,1.8,2470.711,13.28,0.051,260.0
2021-09-11T09:22:03,42.805,6.029,-0.005,0.004,-0.002,103.0,102.0,100.0,13.4,1505.2,329.7,-0.7,1.8,2470.68,13.28,0.006,308.7
2021-09-11T09:25:03,42.805,6.029,-0.024,0.001,-0.005,102.0,102.0,102.0,13.4,1505.2,328.8,-0.7,1.8,2470.71,13.28,0.024,272.4
2021-09-11T09:28:03,42.805,6.029,-0.028,-0.007,-0.004,103.0,103.0,101.0,13.4,1505.2,326.8,-0.8,1.8,2470.705,13.28,0.028,256.0
2021-09-11T09:31:03,42.805,6.029,-0.009,0.0,-0.011,102.0,102.0,101.0,13.4,1505.2,325.7,-0.7,1.8,2470.712,13.28,0.009,270.0
2021-09-11T09:34:03,42.805,6.029,-0.001,0.003,-0.012,102.0,101.0,100.0,13.4,1505.2,329.2,-0.8,1.8,2470.735,13.28,0.003,341.6
2021-09-11T09:37:03,42.805,6.029,-0.03,0.004,-0.016,102.0,102.0,101.0,13.4,1505.2,331.4,-0.8,1.8,2470.663,13.28,0.03,277.6
2021-09-11T09:40:03,42.805,6.029,-0.033,0.001,-0.029,101.0,101.0,101.0,13.4,1505.2,326.6,-0.7,1.8,2470.688,13.28,0.033,271.7
2021-09-11T09:43:03,42.805,6.029,-0.027,0.015,0.011,102.0,103.0,100.0,13.3,1505.2,328.1,-0.7,1.8,2470.712,13.28,0.03,299.1
2021-09-11T09:46:03,42.805,6.029,-0.004,0.007,0.007,102.0,101.0,101.0,13.4,1505.2,329.6,-0.7,1.8,2470.694,13.28,0.008,330.3
2021-09-11T09:49:03,42.805,6.029,-0.031,-0.001,-0.019,102.0,101.0,101.0,13.3,1505.2,330.4,-0.7,1.8,2470.704,13.28,0.031,268.2
2021-09-11T09:52:03,42.805,6.029,-0.035,0.012,0.0,103.0,100.0,101.0,13.3,1505.2,325.8,-0.7,1.8,2470.68,13.28,0.037,288.9